When you browse on this site, cookies collect data to enhance your experience and personalize the content and advertising you see.
Visit our Privacy Policy to learn more. By continuing to use the site, you agree to this use of cookies and data.
  • In Hungary
  • List of Countries
  • For 7 days
  • Water Temperature
  • Weather Map
  • News
  • Weather Widgets
  • user-avatar
    Login

    Hourly Weather Cleethorpes

    Today, 23 August, Friday

    Time Temperature Precipitation Wind Pressure Humidity
    00:00 +17°C° 0 mm 5 mps 766 mmHg 84%
    01:00 +16°C° 0 mm 5 mps 766 mmHg 87%
    02:00 +17°C° 0 mm 4 mps 766 mmHg 89%
    03:00 +15°C° 0 mm 4 mps 766 mmHg 91%
    04:00 +15°C° 0 mm 4 mps 766 mmHg 91%
    05:00 +17°C° 0 mm 4 mps 767 mmHg 91%
    06:00 +17°C° 0 mm 4 mps 767 mmHg 88%
    07:00 +18°C° 0 mm 4 mps 767 mmHg 82%
    08:00 +20°C° 0 mm 4 mps 767 mmHg 76%
    09:00 +22°C° 0 mm 3 mps 767 mmHg 69%
    10:00 +23°C° 0 mm 4 mps 767 mmHg 65%
    11:00 +25°C° 0 mm 4 mps 767 mmHg 61%
    12:00 +26°C° 0 mm 4 mps 767 mmHg 57%
    13:00 +26°C° 0 mm 4 mps 767 mmHg 54%
    14:00 +27°C° 0 mm 4 mps 766 mmHg 52%
    15:00 +27°C° 0 mm 5 mps 766 mmHg 50%
    16:00 +26°C° 0 mm 5 mps 766 mmHg 53%
    17:00 +26°C° 0 mm 5 mps 766 mmHg 57%
    18:00 +25°C° 0 mm 5 mps 765 mmHg 61%
    19:00 +23°C° 0 mm 5 mps 765 mmHg 65%
    20:00 +22°C° 0 mm 4 mps 766 mmHg 69%
    21:00 +20°C° 0 mm 4 mps 766 mmHg 73%
    22:00 +20°C° 0 mm 4 mps 766 mmHg 75%
    23:00 +19°C° 0 mm 4 mps 765 mmHg 77%

    Tomorrow, 24 August, Saturday

    Time Temperature Precipitation Wind Pressure Humidity
    00:00 +19°C° 0 mm 5 mps 765 mmHg 79%
    01:00 +18°C° 0 mm 4 mps 765 mmHg 79%
    02:00 +17°C° 0 mm 4 mps 765 mmHg 78%
    03:00 +17°C° 0 mm 4 mps 765 mmHg 78%
    04:00 +17°C° 0 mm 3 mps 765 mmHg 78%
    05:00 +17°C° 0 mm 3 mps 764 mmHg 77%
    06:00 +17°C° 0 mm 3 mps 764 mmHg 76%
    07:00 +19°C° 0 mm 3 mps 764 mmHg 70%
    08:00 +20°C° 0 mm 3 mps 764 mmHg 63%
    09:00 +22°C° 0 mm 4 mps 764 mmHg 56%
    10:00 +23°C° 0 mm 4 mps 764 mmHg 53%
    11:00 +25°C° 0 mm 4 mps 764 mmHg 50%
    12:00 +26°C° 0 mm 4 mps 764 mmHg 47%
    13:00 +26°C° 0 mm 5 mps 763 mmHg 47%
    14:00 +27°C° 0 mm 5 mps 763 mmHg 48%
    15:00 +27°C° 0 mm 5 mps 763 mmHg 48%
    16:00 +26°C° 0 mm 5 mps 763 mmHg 53%
    17:00 +25°C° 0 mm 4 mps 762 mmHg 57%
    18:00 +23°C° 0 mm 4 mps 762 mmHg 62%
    19:00 +22°C° 0 mm 4 mps 762 mmHg 65%
    20:00 +21°C° 0 mm 4 mps 763 mmHg 68%
    21:00 +20°C° 0 mm 4 mps 763 mmHg 71%
    22:00 +20°C° 0 mm 4 mps 763 mmHg 72%
    23:00 +19°C° 0 mm 4 mps 762 mmHg 72%

    Day after tomorrow, 25 August, Sunday

    Time Temperature Precipitation Wind Pressure Humidity
    00:00 +19°C° 0 mm 3 mps 762 mmHg 73%
    01:00 +18°C° 0 mm 3 mps 762 mmHg 73%
    02:00 +18°C° 0 mm 2 mps 762 mmHg 73%
    03:00 +18°C° 0 mm 2 mps 762 mmHg 72%
    04:00 +18°C° 0 mm 2 mps 762 mmHg 72%
    05:00 +18°C° 0 mm 2 mps 762 mmHg 71%
    06:00 +18°C° 0 mm 2 mps 762 mmHg 71%
    07:00 +20°C° 0 mm 2 mps 762 mmHg 66%
    08:00 +22°C° 0 mm 3 mps 762 mmHg 61%
    09:00 +25°C° 0 mm 3 mps 762 mmHg 57%
    10:00 +26°C° 0 mm 3 mps 762 mmHg 53%
    11:00 +27°C° 0 mm 3 mps 762 mmHg 50%
    12:00 +28°C° 0 mm 4 mps 762 mmHg 46%
    13:00 +28°C° 0 mm 4 mps 762 mmHg 46%
    14:00 +28°C° 0 mm 4 mps 762 mmHg 46%
    15:00 +29°C° 0 mm 4 mps 762 mmHg 46%
    16:00 +27°C° 0 mm 4 mps 762 mmHg 51%
    17:00 +26°C° 0 mm 4 mps 762 mmHg 56%
    18:00 +25°C° 0 mm 5 mps 762 mmHg 61%
    19:00 +23°C° 0 mm 5 mps 762 mmHg 63%
    20:00 +22°C° 0 mm 5 mps 762 mmHg 65%
    21:00 +21°C° 0 mm 5 mps 763 mmHg 67%
    22:00 +21°C° 0 mm 5 mps 763 mmHg 69%
    23:00 +20°C° 0 mm 4 mps 763 mmHg 70%

    26 August, Monday

    Time Temperature Precipitation Wind Pressure Humidity
    00:00 +20°C° 0 mm 4 mps 763 mmHg 72%
    01:00 +20°C° 0 mm 4 mps 762 mmHg 73%
    02:00 +19°C° 0 mm 4 mps 762 mmHg 74%
    03:00 +19°C° 0 mm 3 mps 762 mmHg 75%
    04:00 +19°C° 0 mm 3 mps 762 mmHg 76%
    05:00 +19°C° 0 mm 3 mps 762 mmHg 77%
    06:00 +19°C° 0 mm 3 mps 762 mmHg 77%
    07:00 +21°C° 0 mm 3 mps 762 mmHg 70%
    08:00 +22°C° 0 mm 3 mps 762 mmHg 63%
    09:00 +25°C° 0 mm 3 mps 762 mmHg 55%
    10:00 +27°C° 0 mm 3 mps 762 mmHg 52%
    11:00 +28°C° 0 mm 4 mps 762 mmHg 48%
    12:00 +29°C° 0 mm 4 mps 762 mmHg 45%
    13:00 +29°C° 0 mm 4 mps 762 mmHg 45%
    14:00 +30°C° 0 mm 4 mps 761 mmHg 44%
    15:00 +30°C° 0 mm 4 mps 761 mmHg 44%
    16:00 +29°C° 0 mm 4 mps 761 mmHg 48%
    17:00 +28°C° 0 mm 4 mps 761 mmHg 52%
    18:00 +27°C° 0 mm 4 mps 760 mmHg 56%
    19:00 +26°C° 0 mm 4 mps 761 mmHg 59%
    20:00 +25°C° 0 mm 4 mps 761 mmHg 62%
    21:00 +23°C° 0 mm 4 mps 761 mmHg 65%
    22:00 +22°C° 0 mm 4 mps 761 mmHg 67%
    23:00 +22°C° 0 mm 4 mps 761 mmHg 68%

    27 August, Tuesday

    Time Temperature Precipitation Wind Pressure Humidity
    00:00 +21°C° 0 mm 4 mps 761 mmHg 69%
    01:00 +21°C° 0 mm 4 mps 761 mmHg 70%
    02:00 +20°C° 0 mm 4 mps 760 mmHg 71%
    03:00 +20°C° 0 mm 4 mps 760 mmHg 72%
    04:00 +20°C° 0 mm 3 mps 760 mmHg 72%
    05:00 +20°C° 0 mm 3 mps 760 mmHg 73%
    06:00 +20°C° 0 mm 3 mps 760 mmHg 73%
    07:00 +21°C° 0 mm 3 mps 760 mmHg 69%
    08:00 +22°C° 0 mm 3 mps 759 mmHg 64%
    09:00 +25°C° 0 mm 3 mps 759 mmHg 60%
    10:00 +26°C° 0 mm 4 mps 759 mmHg 58%
    11:00 +27°C° 0 mm 4 mps 759 mmHg 56%
    12:00 +28°C° 0 mm 4 mps 758 mmHg 54%
    13:00 +28°C° 0 mm 4 mps 758 mmHg 53%
    14:00 +28°C° 0 mm 4 mps 757 mmHg 52%
    15:00 +29°C° 0 mm 4 mps 757 mmHg 51%
    16:00 +28°C° 0 mm 4 mps 757 mmHg 56%
    17:00 +27°C° 0 mm 4 mps 757 mmHg 61%
    18:00 +26°C° 0 mm 4 mps 757 mmHg 65%
    19:00 +23°C° 0.8 mm 5 mps 757 mmHg 71%
    20:00 +22°C° 0.8 mm 5 mps 757 mmHg 77%
    21:00 +20°C° 0.8 mm 5 mps 757 mmHg 82%
    22:00 +19°C° 1 mm 5 mps 757 mmHg 83%
    23:00 +17°C° 1 mm 5 mps 757 mmHg 84%

    28 August, Wednesday

    Time Temperature Precipitation Wind Pressure Humidity
    00:00 +16°C° 1 mm 5 mps 757 mmHg 84%
    01:00 +16°C° 0.3 mm 5 mps 757 mmHg 84%
    02:00 +17°C° 0.3 mm 4 mps 757 mmHg 84%
    03:00 +17°C° 0.3 mm 3 mps 757 mmHg 85%
    04:00 +17°C° 0 mm 4 mps 757 mmHg 84%
    05:00 +17°C° 0 mm 4 mps 757 mmHg 84%
    06:00 +16°C° 0 mm 5 mps 758 mmHg 83%
    07:00 +16°C° 0 mm 5 mps 758 mmHg 80%
    08:00 +17°C° 0 mm 5 mps 758 mmHg 77%
    09:00 +19°C° 0 mm 5 mps 758 mmHg 74%
    10:00 +20°C° 0 mm 5 mps 758 mmHg 72%
    11:00 +21°C° 0 mm 5 mps 758 mmHg 69%
    12:00 +22°C° 0 mm 5 mps 758 mmHg 66%
    13:00 +22°C° 0.3 mm 5 mps 758 mmHg 63%
    14:00 +22°C° 0.3 mm 5 mps 758 mmHg 61%
    15:00 +22°C° 0.3 mm 5 mps 758 mmHg 59%
    16:00 +21°C° 0.1 mm 5 mps 759 mmHg 60%
    17:00 +20°C° 0.1 mm 5 mps 759 mmHg 62%
    18:00 +19°C° 0.1 mm 5 mps 759 mmHg 64%
    19:00 +17°C° 0 mm 5 mps 760 mmHg 65%
    20:00 +15°C° 0 mm 5 mps 760 mmHg 67%
    21:00 +14°C° 0 mm 5 mps 761 mmHg 69%
    22:00 +13°C° 0 mm 4 mps 761 mmHg 68%
    23:00 +13°C° 0 mm 4 mps 762 mmHg 68%
    Show more